STARLINK-2004 (47599 NORAD) Tracking and Keplerian Element Data

This shows tracking and keplerian element data for the satellite.

Feedback or suggestion? Click here.




ElementValue
Catalog47599
NameSTARLINK-2004
Epoch Orbit177
Epoch Day105.91667824
Epoch Year2021
RAAN137.9457
Inclination53.0513
Eccentricity0.0003971
Argument of Perigee9.0048
Mean Anonmoly87.9793
Mean Motion15.62780251
Decay Rate-0.0004415
L11 47599U 21009BD 21105.91667824 -.00044150 00000-0 -47822-3 0 9990
L22 47599 53.0513 137.9457 0003971 9.0048 87.9793 15.62780251 1775

Live tracking and technical data element details for STARLINK-2004 (NORAD 47599). STARLINK-2004 can be tracked NOW for your location showing map with azimuth and elevation plus other details from your city location.

Track the satellite on the map from your city or location and see movement details for azimuth, elevation, latitude, longitude, range, height, and movement on the map or in text.







IsCatalogInMostPopularTable: catalog: 47599, numindb: 15
Update: records affected: 1



GetName: 47599 STARLINK-2004

Hit Count: updated at: Fri, 16 Apr 2021 10:32:49 GMT